Wind_Speed
16 15 15 15 16 17 18 19 20 20 20 20 21 22 21 22 22 22 23 23 24 24 24 24 25 25 26 26 25 25 25 24 24 24 24 25 25 26 26 26 27 27 27
16 15 15 14 15 17 19 20 20 20 20 21 21 22 22 23 23 24 24 24 24 24 25 25 26 27 27 27 26 26 25 25 25 25 25 25 26 26 27 27 27 27 27
16 14 14 15 15 17 18 18 19 19 20 20 21 22 23 23 23 24 24 24 24 24 24 25 26 27 28 27 27 26 26 26 27 27 27 27 26 27 27 27 27 27 27
15 15 14 15 16 17 18 18 18 19 20 21 21 21 22 23 24 24 24 24 24 25 25 26 26 27 27 27 27 27 26 26 27 27 28 28 28 28 27 28 28 28 28
16 16 16 16 16 17 18 19 19 20 20 21 21 21 22 22 23 23 23 24 25 26 26 26 26 27 26 27 27 26 26 26 26 27 27 27 28 28 27 27 28 29 28
16 16 16 16 17 18 19 20 21 21 21 21 22 22 22 23 24 24 24 25 26 26 26 27 27 27 27 27 27 26 26 26 26 26 27 27 28 27 27 27 27 28 28
16 16 17 17 18 20 21 21 22 22 22 22 23 23 24 24 25 25 25 26 26 26 26 26 26 27 27 26 26 25 25 26 27 27 27 27 27 28 28 28 28 28 28
16 17 17 18 19 20 21 21 21 21 22 22 22 22 23 23 24 25 26 26 26 26 26 25 25 26 25 26 25 25 26 27 28 28 28 29 29 28 28 28 28 28 28
16 17 17 18 18 19 20 20 20 19 19 20 21 22 23 23 24 24 25 25 24 24 24 24 24 24 24 24 25 26 27 27 28 28 28 29 29 28 28 27 27 27 28
16 17 17 18 18 19 20 20 19 20 21 21 21 22 23 23 24 24 25 24 24 23 23 23 23 23 24 24 24 25 25 26 26 27 27 27 27 27 27 27 26 27 26
16 18 19 18 18 19 19 20 21 21 22 22 22 22 23 23 23 23 22 22 22 22 22 22 21 22 22 23 23 23 24 24 25 25 25 25 25 25 25 26 26 26 25
18 18 19 19 19 20 20 21 21 21 22 22 21 21 22 22 22 21 20 20 21 21 20 20 21 21 21 22 22 22 23 23 23 23 23 22 23 23 23 23 23 24 24
19 20 20 20 20 19 20 20 21 21 22 21 21 21 20 20 20 19 19 19 19 19 19 20 20 20 20 20 20 21 20 20 21 21 20 20 20 20 20 20 20 21 21
18 19 19 19 20 20 20 21 20 20 21 20 19 19 19 18 18 17 17 17 17 17 17 18 18 18 18 18 18 18 17 18 17 17 17 17 17 17 17 18 18 18 19
17 17 17 18 19 19 19 19 18 19 19 18 17 17 17 17 17 16 15 15 15 16 16 16 16 16 15 15 15 15 15 15 14 14 15 15 15 15 15 16 17 17 17
17 17 16 16 17 17 18 18 18 18 16 15 16 16 16 15 15 15 15 14 14 14 14 13 13 13 13 13 13 14 13 13 13 14 13 13 12 12 12 13 13 13 13
17 17 16 16 15 15 15 16 17 15 14 13 14 15 15 14 14 14 13 13 12 12 12 12 11 11 11 12 12 12 12 11 11 11 11 10 10 10 10 9 9 8 8
17 16 14 13 13 13 14 14 14 12 12 11 12 13 13 12 11 11 11 10 10 10 10 10 11 11 11 11 12 11 11 10 10 9 8 8 7 7 7 6 6 5 5
15 13 12 12 12 12 12 12 11 11 10 10 11 11 10 10 9 10 10 10 9 8 8 9 10 10 11 10 10 10 10 9 9 8 7 7 7 7 6 4 3 3 2
12 11 10 10 10 10 10 10 10 10 10 9 10 10 9 9 9 9 9 9 8 8 8 8 8 9 9 10 10 9 9 9 9 8 8 7 6 6 5 4 4 3 2
12 11 10 9 9 8 9 9 9 9 9 9 8 8 9 8 8 8 8 8 8 7 7 7 8 8 9 9 9 9 9 9 9 9 9 9 7 6 6 5 5 4 3
10 9 8 8 8 7 7 6 6 7 7 7 7 7 7 7 7 7 7 7 7 7 7 8 8 8 9 9 9 9 9 10 9 9 9 9 9 7 7 6 5 4 4
7 6 6 6 6 6 5 5 5 5 5 5 6 6 5 6 6 6 5 7 7 7 7 7 8 8 8 8 8 8 9 9 9 9 9 9 9 9 8 7 6 5 4
5 5 5 5 5 4 3 4 4 4 4 4 5 5 5 5 5 5 6 6 7 7 7 7 8 7 8 8 8 9 9 9 10 10 10 10 9 9 8 7 6 6 5
4 4 4 4 3 3 3 3 3 3 3 4 4 5 5 5 5 5 6 6 7 7 8 8 7 7 7 8 9 9 9 10 10 10 10 10 9 8 8 8 8 7 6
3 4 4 3 3 3 2 2 3 3 3 3 4 4 5 5 5 5 6 6 7 7 7 7 7 6 6 7 8 9 9 9 10 10 10 9 9 9 8 8 7 7 6
Wind_Direction
286 288 286 287 288 288 290 291 291 292 292 290 289 288 287 285 285 285 282 281 281 280 280 279 278 277 278 278 277 276 275 272 270 270 270 270 270 269 268 267 266 265 265
288 287 287 287 288 290 292 292 292 291 291 289 288 288 288 287 284 284 282 281 282 282 282 281 281 280 280 278 277 276 276 274 272 272 272 271 270 270 269 268 267 265 265
291 292 290 287 289 293 293 293 292 292 289 288 288 287 288 288 285 284 283 282 282 283 283 282 280 280 281 280 279 279 278 277 275 275 274 273 271 270 269 267 267 266 266
297 296 291 289 292 295 295 295 293 292 291 291 292 292 290 289 287 286 284 282 283 284 284 283 282 281 281 280 279 280 280 279 278 278 277 276 274 272 270 268 267 266 264
296 296 294 294 296 297 296 297 294 294 296 298 297 296 294 290 289 288 286 284 285 285 284 284 283 283 284 281 279 279 279 279 278 279 279 279 277 275 271 268 266 265 263
293 295 294 294 296 297 298 297 296 294 294 296 298 295 294 293 291 290 287 286 286 285 285 286 285 286 285 282 279 278 279 278 278 280 281 280 278 276 274 271 268 266 264
289 297 295 293 294 297 298 299 296 294 293 294 296 296 294 293 292 291 289 288 289 288 287 287 285 285 284 283 280 279 279 279 280 280 280 279 278 276 274 273 270 268 266
289 297 298 295 294 297 297 299 298 296 294 295 297 297 297 296 295 292 290 289 289 289 289 286 284 283 282 283 281 280 279 279 280 280 280 280 278 276 274 272 271 269 267
290 294 295 297 296 296 297 298 298 299 301 298 298 298 298 299 297 294 292 291 290 290 290 290 287 283 283 282 282 281 282 281 281 281 280 278 277 276 274 272 271 270 269
286 292 295 296 297 297 298 299 299 300 302 300 298 301 301 301 299 297 294 291 291 291 291 291 291 289 287 286 287 286 285 283 283 282 282 280 277 275 272 270 269 268 268
285 291 295 295 297 297 299 299 301 302 303 303 301 301 301 301 301 299 297 294 294 292 291 292 292 292 290 289 289 289 289 288 286 285 284 282 279 277 273 271 269 268 267
287 290 291 293 295 297 298 299 300 303 305 306 305 305 305 303 302 300 298 296 296 294 293 294 294 295 296 294 293 293 293 291 287 286 285 283 281 280 277 274 271 270 269
286 288 287 290 293 295 297 297 300 302 305 306 306 306 305 305 305 304 301 301 300 299 298 298 297 299 301 299 298 297 295 293 290 288 287 286 284 282 279 276 272 271 270
282 285 286 290 292 294 297 298 300 303 306 305 305 306 308 308 307 306 306 305 303 302 301 301 301 302 302 302 303 301 298 296 294 292 289 288 286 285 281 276 273 272 270
284 284 285 290 293 295 298 299 299 303 305 307 307 310 312 312 311 310 310 311 309 308 308 308 307 307 306 306 307 306 304 302 301 300 298 296 293 288 285 279 275 273 271
284 287 289 292 294 294 297 299 301 306 308 310 311 312 315 315 314 314 313 313 315 317 318 320 320 318 318 319 316 312 310 307 306 306 304 303 298 298 294 285 280 276 272
289 288 289 291 295 296 299 303 307 306 310 313 315 316 316 317 317 317 319 321 321 323 324 324 323 326 328 328 326 323 322 320 318 318 317 314 309 306 306 297 288 280 273
294 291 288 292 295 297 303 307 313 314 313 314 319 321 320 319 319 323 326 327 328 332 333 332 331 333 332 328 329 331 333 331 329 330 331 331 330 326 321 309 296 286 281
297 292 292 294 297 301 306 307 312 315 318 321 325 327 326 327 323 323 329 332 336 340 340 339 339 342 343 340 341 344 345 342 340 341 341 341 344 348 349 345 340 333 315
305 300 299 299 303 303 306 309 314 317 321 323 323 323 326 332 334 334 337 340 339 339 338 341 347 348 354 358 1 4 6 5 5 4 1 358 358 359 6 16 23 24 22
306 307 305 304 302 301 305 307 314 317 321 326 330 331 330 330 333 341 347 348 348 348 348 350 355 357 358 3 10 14 15 14 16 17 18 17 17 20 23 34 43 45 55
309 309 303 303 302 303 306 308 316 322 325 331 337 338 339 342 345 347 349 352 354 359 359 359 358 360 4 9 13 15 16 19 22 23 23 24 28 35 39 49 59 60 57
314 316 317 315 311 308 308 316 323 331 338 343 344 343 347 357 360 3 3 1 2 4 5 8 9 10 14 18 21 21 20 24 30 33 36 34 36 43 49 55 56 55 50
325 324 323 323 320 322 326 334 334 342 351 357 1 3 2 2 9 21 16 9 10 10 10 14 17 20 24 29 30 28 31 37 40 41 42 43 44 46 47 51 52 51 47
332 334 331 334 342 351 357 360 360 357 1 6 11 12 10 9 13 21 20 19 20 20 23 25 26 32 39 39 40 42 44 46 45 44 43 44 46 49 46 43 43 40 36
340 349 357 355 350 352 1 8 6 10 11 14 16 17 21 25 27 25 25 24 22 20 22 27 30 36 39 39 42 45 46 46 45 43 42 43 44 45 41 35 31 29 24
Height
5863 5863 5863 5861 5860 5860 5859 5858 5856 5854 5852 5850 5849 5847 5845 5844 5843 5841 5840 5839 5837 5835 5834 5833 5831 5830 5829 5827 5826 5825 5823 5823 5822 5821 5820 5819 5818 5817 5817 5816 5816 5816 5816
5860 5860 5859 5858 5857 5856 5854 5853 5851 5850 5848 5846 5844 5842 5840 5839 5837 5835 5834 5832 5831 5829 5827 5826 5824 5823 5821 5820 5819 5817 5816 5815 5814 5814 5813 5812 5812 5810 5810 5809 5809 5808 5808
5857 5856 5855 5854 5853 5851 5849 5848 5846 5844 5843 5841 5839 5836 5835 5833 5831 5829 5827 5826 5824 5822 5821 5819 5817 5816 5814 5812 5811 5810 5809 5808 5806 5806 5805 5804 5804 5803 5802 5801 5801 5801 5801
5853 5852 5851 5850 5848 5847 5845 5843 5841 5839 5837 5835 5833 5831 5829 5827 5825 5823 5821 5819 5817 5815 5814 5812 5810 5808 5807 5805 5804 5802 5801 5800 5799 5798 5797 5796 5795 5795 5795 5794 5793 5793 5794
5849 5848 5846 5845 5844 5842 5840 5838 5836 5834 5832 5829 5827 5825 5822 5820 5818 5816 5814 5812 5810 5808 5806 5804 5803 5801 5799 5797 5796 5794 5793 5792 5792 5791 5789 5788 5787 5786 5786 5786 5785 5785 5785
5844 5844 5842 5841 5839 5837 5835 5832 5831 5829 5826 5824 5821 5819 5816 5814 5811 5809 5807 5805 5803 5801 5799 5797 5795 5793 5791 5790 5788 5787 5786 5785 5784 5783 5782 5780 5779 5778 5778 5777 5777 5777 5777
5840 5839 5837 5835 5833 5832 5829 5827 5826 5823 5821 5818 5815 5813 5810 5807 5805 5802 5800 5798 5796 5793 5791 5789 5787 5785 5784 5782 5781 5779 5778 5777 5776 5775 5774 5772 5771 5770 5769 5769 5769 5769 5769
5835 5834 5832 5830 5828 5827 5825 5822 5820 5817 5815 5812 5810 5807 5804 5801 5798 5795 5793 5790 5788 5786 5783 5781 5780 5778 5776 5775 5773 5772 5771 5770 5768 5767 5765 5764 5762 5761 5760 5760 5760 5760 5760
5829 5828 5827 5825 5824 5822 5820 5817 5815 5812 5809 5807 5804 5801 5798 5795 5792 5789 5786 5784 5781 5779 5776 5774 5772 5770 5769 5767 5766 5765 5763 5762 5760 5758 5757 5755 5754 5753 5752 5751 5751 5752 5752
5824 5823 5821 5820 5819 5817 5814 5812 5810 5807 5804 5801 5798 5795 5792 5789 5786 5783 5780 5778 5775 5773 5770 5768 5766 5763 5762 5760 5759 5757 5755 5754 5752 5750 5749 5747 5745 5744 5743 5742 5742 5743 5743
5819 5818 5816 5815 5813 5811 5809 5807 5805 5802 5799 5796 5793 5789 5786 5783 5780 5777 5774 5772 5769 5767 5765 5762 5760 5757 5755 5753 5752 5750 5748 5746 5744 5743 5741 5739 5737 5736 5735 5735 5735 5735 5735
5814 5813 5811 5809 5808 5806 5804 5802 5800 5797 5794 5790 5787 5784 5781 5777 5774 5771 5769 5766 5764 5761 5759 5757 5754 5752 5750 5747 5745 5743 5741 5739 5737 5735 5734 5732 5730 5729 5728 5727 5727 5727 5727
5809 5807 5805 5804 5802 5800 5798 5797 5795 5792 5788 5785 5782 5779 5776 5773 5769 5767 5764 5761 5759 5756 5754 5751 5749 5747 5744 5742 5740 5737 5735 5733 5731 5729 5728 5726 5724 5723 5721 5721 5721 5721 5721
5802 5801 5800 5798 5797 5795 5794 5791 5789 5786 5783 5780 5777 5774 5771 5768 5765 5762 5760 5757 5754 5752 5749 5747 5744 5742 5739 5737 5735 5732 5730 5728 5726 5724 5722 5720 5718 5717 5716 5715 5715 5715 5715
5796 5795 5794 5793 5792 5790 5788 5786 5784 5781 5778 5775 5773 5770 5767 5764 5762 5759 5756 5753 5751 5748 5745 5743 5740 5737 5735 5733 5731 5729 5726 5724 5722 5720 5718 5715 5714 5712 5711 5710 5709 5709 5709
5791 5789 5789 5788 5786 5785 5783 5782 5779 5777 5774 5771 5769 5766 5764 5761 5758 5756 5753 5750 5747 5745 5742 5740 5737 5735 5733 5730 5728 5726 5723 5721 5719 5716 5714 5712 5710 5708 5706 5705 5705 5704 5704
5787 5785 5784 5783 5782 5781 5779 5777 5775 5772 5770 5768 5766 5763 5761 5758 5755 5753 5750 5747 5745 5742 5740 5738 5736 5733 5731 5728 5726 5723 5721 5718 5716 5713 5711 5709 5707 5705 5704 5702 5702 5701 5701
5783 5781 5779 5779 5777 5776 5774 5773 5771 5768 5766 5765 5763 5760 5758 5755 5753 5750 5748 5745 5743 5741 5739 5737 5734 5732 5729 5726 5724 5721 5719 5717 5714 5712 5709 5707 5705 5703 5702 5700 5700 5699 5699
5779 5777 5775 5774 5773 5772 5770 5769 5767 5766 5764 5762 5760 5758 5756 5753 5751 5748 5746 5744 5742 5739 5738 5736 5733 5731 5728 5725 5723 5721 5718 5716 5713 5711 5709 5706 5704 5703 5701 5700 5699 5698 5698
5774 5773 5771 5770 5769 5768 5767 5766 5764 5763 5762 5760 5758 5756 5754 5752 5749 5747 5745 5743 5741 5739 5737 5735 5732 5730 5728 5725 5723 5721 5718 5716 5713 5711 5708 5706 5704 5703 5701 5700 5699 5698 5698
5771 5769 5768 5767 5766 5765 5765 5763 5762 5761 5759 5758 5756 5754 5752 5750 5748 5746 5744 5742 5740 5738 5736 5734 5732 5730 5728 5726 5723 5721 5719 5716 5714 5711 5709 5707 5705 5704 5702 5701 5700 5699 5699
5768 5767 5766 5765 5764 5763 5762 5761 5760 5759 5758 5756 5754 5753 5751 5749 5747 5745 5744 5742 5740 5738 5736 5734 5733 5731 5729 5726 5724 5722 5720 5718 5715 5713 5711 5709 5706 5705 5703 5702 5702 5701 5700
5766 5765 5764 5763 5762 5761 5760 5759 5759 5758 5756 5755 5753 5752 5750 5748 5746 5745 5743 5742 5740 5738 5736 5734 5733 5731 5729 5727 5725 5723 5721 5719 5717 5714 5712 5710 5708 5707 5705 5704 5703 5703 5702
5764 5763 5762 5761 5760 5759 5758 5758 5757 5756 5755 5754 5753 5751 5749 5748 5746 5745 5743 5742 5740 5738 5736 5735 5733 5731 5730 5728 5726 5724 5722 5720 5718 5716 5715 5713 5711 5709 5708 5707 5706 5705 5704
5762 5761 5760 5760 5759 5758 5757 5757 5756 5755 5754 5753 5752 5751 5749 5748 5746 5745 5743 5742 5740 5739 5737 5735 5734 5732 5731 5730 5728 5726 5724 5722 5720 5719 5717 5715 5713 5712 5710 5709 5708 5706 5705
5761 5760 5759 5759 5758 5757 5757 5756 5755 5755 5754 5753 5752 5750 5749 5748 5746 5745 5744 5742 5741 5740 5738 5736 5735 5734 5732 5731 5729 5727 5726 5724 5723 5721 5719 5718 5716 5714 5712 5711 5710 5708 5707